Location: Unspecified
(42.3650°N, 71.1030°W)
Time: 22:35:52
(UTC+00:00)

Courier 1B Rocket - Pass Details

Date: 29 June 2024
Orbit: 920 x 1201 km, 28.2° (Epoch: 14 July)

Event Time Altitude Azimuth Distance (km) Brightness Sun altitude
Exits shadow 07:52:29 15° 220° (SW) 2,318 6.3 -11.9°
Maximum altitude 07:55:08 20° 191° (S) 2,115 6.3 -11.5°
Drops below altitude 10° 07:59:46 10° 147° (SSE) 2,796 7.3 -10.9°
Sets 08:03:19 0° 131° (SE) 3,803 8.1 -10.5°
